CW6205 Weather Reports


Display with metric or nautical units.
time (UTC)temp
F
wind
direction
speed
MPH
gust
MPH
rain 1hr
in
rain 24hr
in
rain mn
in
humidity
%
barometer
mb
20260505124517 56 203 5.0 11.0 0.00 0.60 0.60 99 1007.2
20260505124017 56 180 4.0 8.0 0.00 0.60 0.60 99 1007.2
20260505123517 56 203 4.0 8.0 0.00 0.60 0.60 99 1007.4
20260505123017 56 180 4.0 10.0 0.00 0.60 0.60 99 1007.3
20260505122517 57 203 3.0 9.0 0.00 0.60 0.60 99 1007.4
20260505122037 57 203 2.0 6.0 0.00 0.60 0.60 99 1007.3
20260505121537 57 180 2.0 6.0 0.00 0.60 0.60 99 1007.5
20260505121017 57 203 2.0 6.0 0.00 0.60 0.60 99 1007.6
20260505120517 57 180 2.0 7.0 0.00 0.60 0.60 99 1007.5
20260505120017 57 180 2.0 5.0 0.00 0.60 0.60 99 1007.5
20260505115518 57 0.0 1.0 0.00 0.60 0.60 99 1007.9
20260505115017 57 0.0 0.0 0.00 0.60 0.60 99 1007.8
20260505114537 57 0.0 0.0 0.00 0.60 0.60 99 1007.7
20260505114017 57 0.0 0.0 0.00 0.60 0.60 99 1007.9
20260505113537 57 0.0 0.0 0.00 0.60 0.60 99 1008.0
20260505113017 57 0.0 1.0 0.01 0.60 0.60 99 1008.2
20260505112517 57 0.0 0.0 0.01 0.60 0.60 99 1008.0
20260505112017 57 0.0 0.0 0.01 0.60 0.60 99 1007.9
20260505111517 57 0.0 0.0 0.01 0.60 0.60 99 1008.0
20260505111017 57 0.0 1.0 0.01 0.60 0.60 99 1007.8
20260505110517 57 0.0 0.0 0.01 0.60 0.60 99 1008.1
20260505102017 57 0.0 1.0 0.08 0.59 0.59 98 1007.0
20260505101517 57 0.0 1.0 0.22 0.59 0.59 98 1007.6
20260505101037 57 135 1.0 2.0 0.31 0.59 0.59 98 1008.4
20260505100537 57 0.0 0.0 0.39 0.59 0.59 98 1008.1
20260505100017 57 135 1.0 2.0 0.43 0.58 0.58 98 1007.9
20260505095517 57 0.0 1.0 0.42 0.57 0.57 98 1007.9
20260505095017 57 0.0 0.0 0.43 0.57 0.57 98 1008.3
20260505094537 57 0.0 1.0 0.45 0.57 0.57 98 1007.5
20260505094017 57 0.0 0.0 0.45 0.56 0.56 98 1007.3
20260505093537 57 0.0 1.0 0.44 0.55 0.55 98 1007.6
20260505093017 57 0.0 2.0 0.45 0.54 0.54 97 1008.1
20260505092517 57 0.0 2.0 0.45 0.53 0.53 97 1007.2
20260505092037 57 338 1.0 3.0 0.45 0.51 0.51 97 1008.2
20260505091517 57 23 2.0 5.0 0.32 0.37 0.37 97 1009.3
20260505091017 57 293 1.0 4.0 0.25 0.28 0.28 97 1009.3
20260505090557 57 315 2.0 6.0 0.17 0.20 0.20 97 1008.4
20260505090017 57 315 2.0 8.0 0.13 0.15 0.15 96 1007.5
20260505085537 56 180 5.0 9.0 0.14 0.15 0.15 96 1005.2
20260505085017 57 203 4.0 9.0 0.14 0.14 0.14 95 1006.0
20260505084517 57 180 8.0 14.0 0.12 0.12 0.12 95 1005.8
20260505084037 57 203 5.0 11.0 0.11 0.11 0.11 94 1006.8
20260505083537 57 180 6.0 11.0 0.11 0.11 0.10 94 1006.2
20260505083017 58 203 6.0 11.0 0.09 0.09 0.09 93 1006.9
20260505082517 58 180 7.0 15.0 0.08 0.08 0.08 93 1006.9
20260505082017 58 180 6.0 13.0 0.06 0.06 0.06 92 1007.1
20260505081517 58 180 4.0 13.0 0.05 0.05 0.05 92 1007.4
20260505081016 58 180 4.0 11.0 0.03 0.03 0.03 91 1007.4
20260505080517 59 203 7.0 15.0 0.03 0.03 0.03 91 1007.4
20260505080017 59 203 7.0 15.0 0.02 0.02 0.02 90 1007.3
20260505075537 59 203 8.0 17.0 0.01 0.01 0.01 88 1006.9
20260505075017 60 180 8.0 16.0 0.00 0.00 0.00 86 1006.5
20260505074557 61 180 8.0 15.0 0.00 0.00 0.00 85 1006.4
20260505074016 61 203 10.0 21.0 0.00 0.00 0.00 82 1006.8
20260505073516 62 203 9.0 21.0 0.00 0.00 0.00 80 1006.8
20260505073017 62 180 9.0 19.0 0.00 0.00 0.00 77 1006.9
20260505072517 62 203 7.0 14.0 0.00 0.00 0.00 78 1006.9
20260505072017 62 180 7.0 13.0 0.00 0.00 0.00 77 1007.2
20260505071516 62 203 6.0 13.0 0.00 0.00 0.00 77 1007.5
20260505071016 62 180 7.0 15.0 0.00 0.00 0.00 77 1007.6
20260505070057 62 180 7.0 15.0 0.00 0.00 0.00 77 1007.7
20260505065537 62 203 8.0 18.0 0.00 0.00 0.00 77 1007.7
20260505065016 62 203 6.0 15.0 0.00 0.00 0.00 78 1007.8
20260505064536 62 203 7.0 20.0 0.00 0.00 0.00 78 1008.0
20260505064016 62 203 6.0 13.0 0.00 0.00 0.00 77 1008.0
20260505063517 62 203 7.0 16.0 0.00 0.00 0.00 77 1008.2
20260505063016 62 203 9.0 20.0 0.00 0.00 0.00 77 1008.0
20260505062517 62 180 8.0 17.0 0.00 0.00 0.00 77 1008.0
20260505062016 62 203 8.0 22.0 0.00 0.00 0.00 77 1008.1
20260505061516 62 180 8.0 18.0 0.00 0.00 0.00 78 1008.0
20260505061016 62 203 8.0 20.0 0.00 0.00 0.00 78 1008.2
20260505060517 62 180 6.0 11.0 0.00 0.00 0.00 78 1008.4
20260505060016 62 180 8.0 22.0 0.00 0.00 0.00 78 1008.3
20260505055517 62 203 8.0 22.0 0.00 0.00 0.00 78 1008.1
20260505055016 62 180 8.0 16.0 0.00 0.00 0.00 78 1008.2
20260505054516 62 180 8.0 16.0 0.00 0.00 0.00 78 1008.1
20260505054037 62 180 8.0 21.0 0.00 0.00 0.00 78 1008.1
20260505053517 62 180 6.0 19.0 0.00 0.00 0.00 78 1008.2
20260505053037 62 203 8.0 18.0 0.00 0.00 0.00 77 1008.2
20260505052536 62 203 7.0 14.0 0.00 0.00 0.00 77 1008.4
20260505052016 62 180 8.0 16.0 0.00 0.00 0.00 77 1008.6
20260505051516 62 180 7.0 15.0 0.00 0.00 0.00 77 1008.8
20260505051016 62 180 7.0 16.0 0.00 0.00 0.00 77 1008.7
20260505050537 62 180 8.0 15.0 0.00 0.00 0.00 77 1008.7
20260505041536 63 203 6.0 9.0 0.00 0.00 0.00 77 1008.9
20260505041016 63 180 6.0 12.0 0.00 0.00 0.00 77 1009.1
20260505040516 63 180 6.0 13.0 0.00 0.00 0.00 77 1009.3
20260505040016 63 203 5.0 10.0 0.00 0.00 0.00 77 1009.4
20260505035516 63 180 7.0 14.0 0.00 0.00 0.00 77 1009.3
20260505035016 63 180 5.0 9.0 0.00 0.00 0.00 77 1009.3
20260505034516 63 203 5.0 12.0 0.00 0.00 0.00 77 1009.3
20260505034017 63 203 6.0 13.0 0.00 0.00 0.00 77 1009.4
20260505033516 63 203 4.0 8.0 0.00 0.00 0.00 77 1009.3
20260505033016 63 180 6.0 10.0 0.00 0.00 0.00 77 1009.2
20260505032516 63 180 6.0 13.0 0.00 0.00 0.00 77 1009.3
20260505032017 63 180 7.0 15.0 0.00 0.00 0.00 77 1009.3
20260505031516 63 203 5.0 12.0 0.00 0.00 0.00 77 1009.1
20260505031016 63 180 7.0 13.0 0.00 0.00 0.00 77 1009.0
20260505030516 63 180 6.0 12.0 0.00 0.00 0.00 76 1008.9
20260505030016 63 158 7.0 15.0 0.00 0.00 0.00 76 1008.8
20260505025516 63 203 6.0 14.0 0.00 0.00 0.00 76 1008.8
20260505025022 63 203 7.0 22.0 0.00 0.00 0.00 76 1008.8
20260505024516 63 180 5.0 14.0 0.00 0.00 0.00 76 1008.5
20260505024016 63 203 6.0 12.0 0.00 0.00 0.00 75 1008.6
20260505023516 63 203 6.0 19.0 0.00 0.00 0.00 75 1008.4
20260505023016 64 203 6.0 15.0 0.00 0.00 0.00 75 1008.3
20260505022516 64 180 7.0 18.0 0.00 0.00 0.00 75 1008.3
20260505022016 64 180 7.0 19.0 0.00 0.00 0.00 75 1008.3
20260505021516 64 180 7.0 16.0 0.00 0.00 0.00 75 1008.1
20260505021016 64 203 7.0 21.0 0.00 0.00 0.00 74 1007.9
20260505020516 64 180 7.0 15.0 0.00 0.00 0.00 74 1007.9
20260505020016 64 203 7.0 15.0 0.00 0.00 0.00 74 1007.9
20260505015517 64 203 6.0 11.0 0.00 0.00 0.00 74 1008.0
20260505015037 64 180 6.0 12.0 0.00 0.00 0.00 74 1008.0
20260505014516 64 180 8.0 17.0 0.00 0.00 0.00 74 1007.9
20260505014016 64 203 7.0 12.0 0.00 0.00 0.00 74 1008.1
20260505013516 64 203 6.0 13.0 0.00 0.00 0.00 74 1008.0
20260505013016 64 203 6.0 16.0 0.00 0.00 0.00 73 1008.0
20260505012517 64 158 8.0 16.0 0.00 0.00 0.00 73 1007.8
20260505012016 64 203 6.0 12.0 0.00 0.00 0.00 73 1007.9
20260505011517 64 180 7.0 14.0 0.00 0.00 0.00 73 1007.9
20260505011016 65 180 5.0 11.0 0.00 0.00 0.00 73 1007.9
20260505010516 65 203 6.0 13.0 0.00 0.00 0.00 73 1007.9
20260505010016 65 180 6.0 14.0 0.00 0.00 0.00 72 1007.8
20260505005516 65 203 6.0 20.0 0.00 0.00 0.00 72 1007.8
20260505005016 65 203 8.0 17.0 0.00 0.00 0.00 72 1007.5
20260505004516 65 203 6.0 15.0 0.00 0.00 0.00 72 1007.5
20260505004016 65 203 6.0 12.0 0.00 0.00 0.00 71 1007.7
20260505003516 66 203 7.0 18.0 0.00 0.00 0.00 71 1007.7
20260505003016 66 203 8.0 15.0 0.00 0.00 0.00 71 1007.8
20260505002536 66 203 8.0 18.0 0.00 0.00 0.00 70 1007.7
20260505002016 66 180 8.0 15.0 0.00 0.00 0.00 70 1007.7
20260505001516 67 180 7.0 19.0 0.00 0.00 0.00 69 1007.8
20260505001036 67 203 6.0 13.0 0.00 0.00 0.00 69 1007.9
20260505000516 67 180 8.0 13.0 0.00 0.00 0.00 68 1007.9
20260505000016 68 180 5.0 10.0 0.00 0.00 0.00 68 1007.9
20260504235516 68 203 7.0 15.0 0.00 0.00 0.00 67 1007.7
20260504235016 68 203 7.0 15.0 0.00 0.00 0.00 66 1007.7
20260504234536 69 180 7.0 14.0 0.00 0.00 0.00 66 1007.9
20260504234036 69 203 5.0 13.0 0.00 0.00 0.00 67 1008.1
20260504233516 69 180 7.0 15.0 0.00 0.00 0.00 65 1008.1
20260504233016 69 203 6.0 15.0 0.00 0.00 0.00 65 1008.0
20260504232556 70 203 7.0 16.0 0.00 0.00 0.00 64 1008.1
20260504232016 70 203 7.0 15.0 0.00 0.00 0.00 65 1008.4
20260504231516 70 203 6.0 12.0 0.00 0.00 0.00 65 1008.6
20260504231016 70 203 6.0 16.0 0.00 0.00 0.00 66 1008.6
20260504230516 70 180 5.0 11.0 0.00 0.00 0.00 64 1008.7
20260504230016 70 203 5.0 11.0 0.00 0.00 0.00 65 1008.9
20260504225536 70 203 5.0 10.0 0.00 0.00 0.00 65 1008.9
20260504225016 70 180 6.0 15.0 0.00 0.00 0.00 64 1008.9
20260504224516 70 203 6.0 14.0 0.00 0.00 0.00 63 1008.9
20260504224016 71 158 9.0 19.0 0.00 0.00 0.00 63 1009.0
20260504223516 71 180 6.0 12.0 0.00 0.00 0.00 63 1009.2
20260504223016 71 203 5.0 10.0 0.00 0.00 0.00 63 1009.2
20260504222516 71 180 6.0 14.0 0.00 0.00 0.00 63 1009.1
20260504222016 71 203 7.0 15.0 0.00 0.00 0.00 63 1009.2
20260504221516 72 180 8.0 16.0 0.00 0.00 0.00 61 1009.3
20260504221016 72 180 6.0 15.0 0.00 0.00 0.00 62 1009.4
20260504220516 72 180 4.0 9.0 0.00 0.00 0.00 61 1009.4
20260504220016 72 203 5.0 10.0 0.00 0.00 0.00 62 1009.4
20260504215536 72 180 5.0 12.0 0.00 0.00 0.00 61 1009.4
20260504215016 72 180 6.0 12.0 0.00 0.00 0.00 62 1009.4
20260504214516 72 158 5.0 12.0 0.00 0.00 0.00 62 1009.6
20260504214016 72 203 6.0 13.0 0.00 0.00 0.00 61 1009.4
20260504213516 72 180 8.0 19.0 0.00 0.00 0.00 60 1009.5
20260504213016 72 180 7.0 17.0 0.00 0.00 0.00 60 1009.6
20260504212516 72 203 6.0 15.0 0.00 0.00 0.00 60 1009.6
20260504212016 73 203 7.0 18.0 0.00 0.00 0.00 58 1009.8
20260504211516 73 180 6.0 13.0 0.00 0.00 0.00 59 1009.8
20260504211016 73 203 6.0 14.0 0.00 0.00 0.00 59 1009.9
20260504210516 73 203 6.0 14.0 0.00 0.00 0.00 58 1009.9
20260504210016 73 225 6.0 14.0 0.00 0.00 0.00 57 1009.8
20260504205516 73 203 6.0 14.0 0.00 0.00 0.00 58 1009.9
20260504205016 73 180 8.0 26.0 0.00 0.00 0.00 57 1009.9
20260504203538 74 203 6.0 14.0 0.00 0.00 0.00 58 1010.1
20260504203038 73 203 7.0 18.0 0.00 0.00 0.00 59 1010.3
20260504202517 73 203 7.0 16.0 0.00 0.00 0.00 57 1010.2
20260504202017 73 203 7.0 17.0 0.00 0.00 0.00 57 1010.3
20260504201518 73 203 8.0 19.0 0.00 0.00 0.00 57 1010.5
20260504201017 73 203 6.0 15.0 0.00 0.00 0.00 57 1010.4
20260504200518 73 203 6.0 16.0 0.00 0.00 0.00 58 1010.4
20260504200017 73 180 8.0 19.0 0.00 0.00 0.00 57 1010.4
20260504195538 73 180 8.0 16.0 0.00 0.00 0.00 57 1010.4
20260504195018 73 203 7.0 21.0 0.00 0.00 0.00 58 1010.5
20260504194517 73 180 8.0 18.0 0.00 0.00 0.00 57 1010.4
20260504194018 73 180 7.0 17.0 0.00 0.00 0.00 59 1010.6
20260504193517 73 203 8.0 19.0 0.00 0.00 0.00 58 1010.7
20260504193017 73 203 7.0 14.0 0.00 0.00 0.00 59 1010.7
20260504192517 73 180 8.0 15.0 0.00 0.00 0.00 58 1010.8
20260504192017 73 225 8.0 17.0 0.00 0.00 0.00 58 1011.0
20260504191517 73 203 9.0 21.0 0.00 0.00 0.00 57 1011.0
20260504191058 72 180 7.0 17.0 0.00 0.00 0.00 58 1011.2
20260504190517 72 158 8.0 15.0 0.00 0.00 0.00 59 1011.1
20260504190017 73 203 7.0 18.0 0.00 0.00 0.00 59 1011.2
20260504185518 72 180 7.0 15.0 0.00 0.00 0.00 59 1011.1
20260504185018 72 180 7.0 16.0 0.00 0.00 0.00 60 1011.1
20260504184537 72 180 8.0 19.0 0.00 0.00 0.00 60 1011.2
20260504184017 72 203 8.0 17.0 0.00 0.00 0.00 60 1011.3
20260504183517 72 203 8.0 18.0 0.00 0.00 0.00 60 1011.3
20260504183017 72 203 8.0 17.0 0.00 0.00 0.00 59 1011.4
20260504182517 72 180 8.0 17.0 0.00 0.00 0.00 59 1011.5
20260504182018 72 203 6.0 14.0 0.00 0.00 0.00 60 1011.5
20260504181538 72 203 7.0 17.0 0.00 0.00 0.00 60 1011.6
20260504181017 72 203 8.0 17.0 0.00 0.00 0.00 60 1011.5
20260504180517 72 180 7.0 16.0 0.00 0.00 0.00 61 1011.5
20260504180019 72 203 6.0 14.0 0.00 0.00 0.00 61 1011.6
20260504175537 71 180 6.0 12.0 0.00 0.00 0.00 61 1011.7
20260504175017 71 180 7.0 15.0 0.00 0.00 0.00 62 1011.6
20260504174517 70 180 8.0 16.0 0.00 0.00 0.00 63 1011.7
20260504174018 70 180 9.0 18.0 0.00 0.00 0.00 61 1011.7
20260504173517 71 203 7.0 15.0 0.00 0.00 0.00 61 1011.8
20260504173017 71 203 6.0 13.0 0.00 0.00 0.00 62 1012.0
20260504172517 71 203 5.0 16.0 0.00 0.00 0.00 61 1012.2
20260504172017 71 180 7.0 15.0 0.00 0.00 0.00 60 1012.1
20260504171537 70 203 6.0 12.0 0.00 0.00 0.00 62 1012.2
20260504171017 70 203 7.0 15.0 0.00 0.00 0.00 61 1012.2
20260504170517 70 180 7.0 19.0 0.00 0.00 0.00 60 1012.3
20260504151017 64 203 8.0 16.0 0.00 0.00 0.00 64 1012.7
20260504150518 64 203 7.0 14.0 0.00 0.00 0.00 64 1012.7
20260504141017 61 180 6.0 13.0 0.00 0.00 0.00 68 1013.1
20260504140517 61 203 7.0 16.0 0.00 0.00 0.00 67 1012.8
20260504130517 60 203 8.0 17.0 0.00 0.00 0.00 67 1012.7